CZ-6A DEB, 54489

Orbit data source: Space-Track

CZ-6A DEB, 54489 is space debris in SSO originally from a launch on Fri, 11 Nov 2022 UTC launched from the Taiyaun Space Center, China (TSC). Debris objects in space refer to the collection of defunct objects orbiting the Earth. Examples of debris include non-operational satellites, rocket bodies, and fragments generated from explosions, collisions, or faulty payload assembly.

Loading next visibility...
Identifier
54489, 2022-151HR
Orbit
SSO
Country
Flag of CNCN / PRC
Related business
Manufacturer
SAST
Mission
Spacecraft
Bus & Motor
Unknown
Mass
Unknown
Launch date (UTC)
2022-11-11 (4 years ago)
Launch vehicle
Unknown
Launch site
Taiyaun Space Center, China (TSC)
Object type
Payload
Rocket body
Debris
Shape & HBR
Unknown shape, 0.1 m
Radar Cross Section
Medium (>0.1 m² and <1 m²)

Expand to show TLE details & history
Last TLE update: 2 days ago

TLE from 2 days ago
0 CZ-6A DEB
1 54489U 22151HR  26171.14886454  .00007221  00000-0  12809-2 0  9992
2 54489  98.6253 230.5637 0068947 296.3147  63.0984 14.66016217189919
Epoch: 2026-06-20T03:34Z
TLE epoch observation values (Epoch: 2026-06-20T03:34:21.896Z)
Latitude
-0.00002°
Longitude
-91.39517°
Altitude
655.059 km
Speed
7.542 km/s
True Right ascension
15h 22m 15s
True Declination
0° 00' 00"
Sunlit
Object was in full shadow at epoch
Visualization orbit readout
Latitude
Unknown
Longitude
Unknown
Altitude
Unknown
Speed
Unknown
Apparent Right ascension
Unknown
Apparent Declination
Unknown
Sunlit
N/A
Visualization observer readout
Local Sidereal Time
21:32:56
Azimuth
Unknown
Elevation
Unknown
Doppler factor
Unknown
Orbital elements
Apogee altitude
719.509 km
Perigee altitude
622.307 km
Semi-major axis
7,049.045 km
Eccentricity
0.00689
Inclination
98.6253°
RAAN
230.5637°
Arg. of periapsis
296.3147°
True anomaly
63.80572°
Mean anomaly
63.0984°
Eccentric anomaly
63.45178°
Mean motion
3.66731 °/min
Orbital period
98.16 mins
BSTAR
0.0012809
Loading maneuver chart data...
Computing Atmospheric mass density...
Loading historical data...
Loading historical data...
Loading historical data...
Loading historical data...
Loading historical data...
Loading historical data...
Loading historical data...

Documentation

Showing up to 5 results
|